This demonstration page uses our WeatherBlox Daily Observations layout. Learn more.

Left ArrowRight Arrow

Hourly Observations for April 25, 2017

Temp ( °F °C ) Dew Point ( °F °C ) Humidity (%) Winds ( mph kmh ) Pressure ( in mb ) Visibility ( mi km ) Precip ( " mm )
12:15 am 00:15 Cloudy 54 12 39 4 58 58 NNE 10 17 29.56 1001 10 16 0.00 0.00
12:35 am 00:35 Cloudy 54 12 39 4 58 58 NNE 18 30 29.53 1000 10 16 0.00 0.00
12:55 am 00:55 Cloudy 54 12 37 3 54 54 NNE 10 17 29.53 1000 10 16 0.00 0.00
1:15 am 01:15 Cloudy 52 11 37 3 58 58 NNE 12 19 29.56 1001 10 16 0.00 0.00
1:35 am 01:35 Mostly Cloudy 52 11 37 3 58 58 NNE 21 33 29.53 1000 10 16 0.00 0.00
1:55 am 01:55 Mostly Cloudy 52 11 37 3 58 58 ENE 16 26 29.56 1001 10 16 0.00 0.00
2:15 am 02:15 Cloudy 50 10 37 3 62 62 ENE 12 19 29.59 1002 10 16 0.00 0.00
2:35 am 02:35 Mostly Cloudy 48 9 37 3 66 66 NNE 15 24 29.56 1001 10 16 0.00 0.00
2:55 am 02:55 Mostly Cloudy 48 9 37 3 66 66 N 13 20 29.56 1001 10 16 0.00 0.00
3:15 am 03:15 Cloudy 48 9 37 3 66 66 N 15 24 29.56 1001 10 16 0.00 0.00
3:35 am 03:35 Cloudy 48 9 37 3 66 66 N 12 19 29.56 1001 10 16 0.00 0.00
3:55 am 03:55 Cloudy 46 8 37 3 71 71 N 17 28 29.53 1000 10 16 0.00 0.00
4:15 am 04:15 Cloudy 46 8 39 4 76 76 NNE 18 30 29.50 999 10 16 0.00 0.00
4:35 am 04:35 Cloudy 46 8 39 4 76 76 NE 16 26 29.50 999 10 16 0.00 0.00
4:55 am 04:55 Cloudy 46 8 39 4 76 76 NE 20 31 29.50 999 10 16 0.01 0.25
5:15 am 05:15 Mostly Cloudy 45 7 39 4 81 81 NE 18 30 29.53 1000 10 16 0.00 0.00
5:35 am 05:35 Mostly Cloudy 46 8 39 4 76 76 NNE 8 13 29.50 999 10 16 0.00 0.00
5:55 am 05:55 Cloudy 46 8 39 4 76 76 N 10 17 29.53 1000 10 16 0.02 0.51
6:15 am 06:15 Mostly Cloudy 45 7 39 4 81 81 N 12 19 29.56 1001 10 16 0.03 0.76
6:35 am 06:35 Cloudy 45 7 39 4 81 81 ENE 14 22 29.53 1000 10 16 0.05 1.27
6:55 am 06:55 Cloudy 45 7 39 4 81 81 ENE 17 28 29.53 1000 10 16 0.05 1.27
7:15 am 07:15 Cloudy 45 7 39 4 81 81 ENE 15 24 29.53 1000 10 16 0.00 0.00
7:35 am 07:35 Cloudy 45 7 39 4 81 81 ENE 16 26 29.53 1000 10 16 0.00 0.00
7:55 am 07:55 Cloudy 46 8 41 5 82 82 ENE 18 30 29.50 999 10 16 0.00 0.00
8:15 am 08:15 Cloudy 46 8 41 5 82 82 WNW 17 28 29.59 1002 10 16 0.00 0.00
8:35 am 08:35 Cloudy with Nearby Thunderstorms 46 8 39 4 76 76 NNW 15 24 29.59 1002 10 16 0.00 0.00
8:55 am 08:55 Cloudy 45 7 39 4 81 81 N 16 26 29.59 1002 10 16 0.02 0.51
9:15 am 09:15 Cloudy 45 7 39 4 81 81 NNW 17 28 29.59 1002 8 13 0.00 0.00
9:35 am 09:35 Cloudy 43 6 37 3 81 81 N 21 33 29.59 1002 10 16 0.03 0.76
9:55 am 09:55 Cloudy 43 6 37 3 81 81 N 21 33 29.59 1002 10 16 0.03 0.76
10:15 am 10:15 Cloudy 43 6 37 3 81 81 N 20 31 29.62 1003 10 16 0.00 0.00
10:35 am 10:35 Cloudy 43 6 37 3 81 81 N 21 33 29.59 1002 10 16 0.00 0.00
10:55 am 10:55 Cloudy 43 6 37 3 81 81 N 20 31 29.59 1002 10 16 0.00 0.00
11:15 am 11:15 Cloudy 43 6 36 2 76 76 N 18 30 29.59 1002 10 16 0.00 0.00
11:35 am 11:35 Cloudy 43 6 36 2 76 76 N 16 26 29.59 1002 10 16 0.00 0.00
11:55 am 11:55 Cloudy 43 6 37 3 81 81 N 15 24 29.62 1003 10 16 0.00 0.00
12:15 pm 12:15 Cloudy 43 6 36 2 76 76 NNE 16 26 29.59 1002 10 16 0.00 0.00
12:35 pm 12:35 Cloudy 43 6 37 3 81 81 NNE 14 22 29.62 1003 10 16 0.00 0.00
12:55 pm 12:55 Cloudy 43 6 37 3 81 81 NNE 17 28 29.59 1002 10 16 0.00 0.00
1:15 pm 13:15 Cloudy 45 7 37 3 76 76 NNE 17 28 29.59 1002 10 16 0.00 0.00
1:35 pm 13:35 Cloudy 45 7 37 3 76 76 N 15 24 29.59 1002 10 16 0.00 0.00
1:55 pm 13:55 Cloudy 45 7 37 3 76 76 N 16 26 29.59 1002 10 16 0.00 0.00
2:15 pm 14:15 Cloudy 45 7 37 3 76 76 N 16 26 29.59 1002 10 16 0.00 0.00
2:35 pm 14:35 Cloudy 45 7 37 3 76 76 N 16 26 29.59 1002 10 16 0.00 0.00
2:55 pm 14:55 Cloudy 45 7 37 3 76 76 N 16 26 29.62 1003 10 16 0.00 0.00
3:15 pm 15:15 Cloudy 43 6 37 3 81 81 N 16 26 29.62 1003 10 16 0.00 0.00
3:35 pm 15:35 Cloudy 43 6 37 3 81 81 N 18 30 29.62 1003 10 16 0.00 0.00
3:55 pm 15:55 Cloudy 43 6 37 3 81 81 N 20 31 29.62 1003 10 16 0.00 0.00
4:15 pm 16:15 Cloudy 43 6 37 3 81 81 N 17 28 29.65 1004 10 16 0.00 0.00
4:35 pm 16:35 Cloudy 43 6 36 2 76 76 N 21 33 29.65 1004 10 16 0.00 0.00
4:55 pm 16:55 Cloudy 43 6 36 2 76 76 N 20 31 29.65 1004 10 16 0.00 0.00
5:15 pm 17:15 Cloudy 41 5 36 2 81 81 N 21 33 29.65 1004 10 16 0.00 0.00
5:35 pm 17:35 Cloudy 41 5 36 2 81 81 N 16 26 29.65 1004 10 16 0.00 0.00
5:55 pm 17:55 Cloudy 39 4 36 2 87 87 N 22 35 29.68 1005 10 16 0.00 0.00
6:15 pm 18:15 Cloudy 39 4 36 2 87 87 N 21 33 29.68 1005 10 16 0.00 0.00
6:35 pm 18:35 Cloudy 39 4 34 1 81 81 N 22 35 29.71 1006 10 16 0.00 0.00
6:55 pm 18:55 Cloudy 39 4 34 1 81 81 N 20 31 29.71 1006 10 16 0.00 0.00
7:15 pm 19:15 Cloudy 39 4 34 1 81 81 N 21 33 29.71 1006 10 16 0.00 0.00
7:35 pm 19:35 Cloudy 39 4 34 1 81 81 N 17 28 29.71 1006 10 16 0.00 0.00
7:55 pm 19:55 Cloudy 39 4 34 1 81 81 N 17 28 29.74 1007 10 16 0.00 0.00
8:15 pm 20:15 Cloudy 39 4 34 1 81 81 N 15 24 29.74 1007 10 16 0.00 0.00
8:35 pm 20:35 Cloudy 39 4 34 1 81 81 N 18 30 29.74 1007 10 16 0.00 0.00
8:55 pm 20:55 Cloudy 39 4 34 1 81 81 N 17 28 29.77 1008 10 16 0.00 0.00
9:15 pm 21:15 Cloudy 39 4 32 0 75 75 N 18 30 29.77 1008 10 16 0.00 0.00
9:35 pm 21:35 Cloudy 39 4 32 0 75 75 N 20 31 29.77 1008 10 16 0.00 0.00
9:55 pm 21:55 Cloudy 39 4 32 0 75 75 N 20 31 29.77 1008 10 16 0.00 0.00
10:15 pm 22:15 Cloudy 39 4 32 0 75 75 N 16 26 29.77 1008 10 16 0.00 0.00
10:35 pm 22:35 Cloudy 39 4 32 0 75 75 N 17 28 29.77 1008 10 16 0.00 0.00
10:55 pm 22:55 Cloudy 37 3 30 -1 75 75 N 16 26 29.80 1009 10 16 0.00 0.00
11:15 pm 23:15 Cloudy 37 3 30 -1 75 75 NNW 20 31 29.80 1009 10 16 0.00 0.00
11:35 pm 23:35 Cloudy 37 3 30 -1 75 75 NNW 20 31 29.80 1009 10 16 0.00 0.00
11:55 pm 23:55 Cloudy 37 3 30 -1 75 75 NNW 20 31 29.77 1008 10 16 0.00 0.00

Powered by AerisWeather